sat.trackr.live / text

‹ back to catalog

KUIPER-00136

NORAD 65962 · 2025-228R

PAYLOAD ACTIVE UNKNOWN

§ Identity

Operator
Country
US
Launch date
2025-10-14
Launch site
AFETR
Launch vehicle
Mass (kg)
RCS (m²)

External: N2YO · Heavens-Above · Gunter

§ Orbital elements

Epoch: 2026-05-25T00:25:35.899104Z

Period
97.29 min
Inclination
51.9010°
Eccentricity
0.0001095
Mean motion
14.80086158 rev/d
Perigee alt
628.3 km
Apogee alt
629.8 km
Semi-major
7,007.2 km
B*
2.1363e-3
RAAN
10.6279°
Arg perigee
64.5400°
Mean anomaly
295.5676°
Rev number
3,470

§ Raw data

KUIPER-001361 65962U 25228R   26145.01777661  .00016163  00000+0  21363-2 0  99932 65962  51.9010  10.6279 0001095  64.5400 295.5676 14.80086158 34700

JSON: /api/v1/satellites/65962 · /tle

For live sub-satellite position, see the globe view (requires WebGL).

§ Visibility from observer

Set your observer location to see the next 7 days of passes ≥ 10°. The values pass through the URL so the page stays shareable.

No JS? Fill the form by hand. The geolocation button needs JavaScript.